Location: �clusier
(49.9361°N, 2.7869°E)
Time: 07:47:37
(UTC+00:00)

Meteor 2-11 Rocket - Pass Details

Date: 16 June 2021
Orbit: 938 x 958 km, 82.5° (Epoch: 02 August)

Event Time Altitude Azimuth Distance (km) Brightness Sun altitude
Rises 21:18:52 0° 349° (N) 3,639 8.9 -9.4°
Reaches altitude 10° 21:21:23 10° 350° (N) 2,686 8.0 -9.6°
Maximum altitude 21:27:33 87° 80° (E) 956 4.5 -10.2°
Enters shadow 21:33:25 11° 170° (S) 2,569 6.1 -10.7°
